Location: Kernascl�den
(48.0062°N, 3.3198°W)
Time: 07:03:15
(UTC+00:00)

Cosmos 1602 Rocket - Visible Passes

Search period start: 11 May 2021 00:00
Search period end: 21 May 2021 00:00
Orbit: 604 x 633 km, 82.5° (Epoch: 10 May)

Date Brightness Start Highest point End Pass type
(mag) Time Alt. Az. Time Alt. Az. Time Alt. Az.
13 May 6.6 03:30:42 10° ESE 03:32:19 12° E 03:33:56 10° ENE visible
14 May 6.2 03:45:56 10° SE 03:49:08 20° E 03:52:23 10° NE visible
17 May 6.5 03:01:13 10° ESE 03:02:59 12° E 03:04:46 10° ENE visible
18 May 6.0 03:16:32 10° SE 03:19:49 21° E 03:23:08 10° NE visible
19 May 5.1 03:32:45 10° SSE 03:36:44 36° E 03:40:47 10° NNE visible
20 May 4.0 03:49:27 10° S 03:53:45 65° E 03:58:09 10° NNE visible
